Back to catalog

STARLINK-11230

AliveCommunicationsVLEO
NORAD 61053·PAYLOAD·🇺🇸 United States

Launched Sep 13, 2024 from Vandenberg Space Force Base

Loading…

Next Passes (next 24 hours)

TLE

FreshSource: CelesTrak SupGP

Epoch: Sep 14, 2026, 22:18 UTC

1 61053C 24164D   26257.92965278 -.00014585  00000+0 -12012-3 0  2572
2 61053  53.1563  98.2334 0001066  89.4208 257.3497 15.69720926    18

Track STARLINK-11230 in real time with AllMySat

Download on the App Store